Wind_Speed
6 8 7 8 8 8 7 7 7 7 7 7 6 6 5 4 4 3 4 4 5 5 6 6 6 6 6 5 5 4 4 4 5 4 4 4 4 4 4 4 4 4 3
6 8 8 8 8 8 8 8 7 8 8 7 7 6 5 4 3 2 2 3 3 4 4 5 5 5 4 4 4 3 3 4 4 4 3 4 4 4 4 4 4 3 3
7 8 8 9 9 8 8 8 8 9 8 8 7 7 6 5 4 2 1 1 1 2 3 3 3 3 3 3 3 3 2 3 3 3 3 3 3 3 4 4 4 3 2
7 7 8 9 9 9 9 9 9 9 10 9 9 8 7 6 5 3 2 2 1 0 1 1 2 2 2 2 2 2 2 2 2 2 2 2 2 3 3 3 3 3 2
7 7 8 9 10 10 10 10 10 10 11 11 10 10 9 8 7 5 4 3 3 2 2 1 1 1 1 1 1 1 1 1 1 1 1 1 1 2 2 2 2 2 2
8 9 9 10 10 11 11 11 11 11 11 11 11 11 10 10 8 7 6 5 5 5 4 4 3 3 2 2 2 2 2 1 1 1 1 1 1 1 1 1 1 1 1
9 9 10 10 11 11 11 11 12 12 13 13 13 13 12 11 10 10 9 8 7 7 7 6 6 5 4 3 4 4 3 3 3 2 2 1 1 1 1 1 1 1 1
10 10 10 10 11 12 12 12 13 13 13 14 14 14 14 13 13 12 12 10 10 9 9 9 8 7 6 5 5 5 5 5 4 4 4 3 2 2 2 2 1 1 1
11 11 11 11 12 12 13 13 14 14 14 15 15 16 16 16 15 15 14 13 12 11 11 10 10 9 8 7 7 7 7 6 6 6 6 5 4 4 4 4 3 2 2
12 12 12 12 12 13 14 15 15 15 16 16 16 17 17 18 17 17 16 15 14 14 13 12 12 11 10 9 9 8 8 8 8 8 8 7 6 6 5 5 5 4 3
12 12 13 13 14 14 15 16 16 16 16 17 17 18 19 19 19 18 17 16 15 15 14 14 14 13 12 11 11 10 10 10 10 10 10 9 9 8 7 7 6 6 6
13 13 13 14 15 16 16 17 17 17 17 18 18 18 19 20 20 19 18 18 17 16 16 15 15 15 15 13 13 12 12 12 12 12 12 11 11 10 9 9 9 8 8
16 15 15 15 16 17 18 19 19 19 20 20 20 20 20 21 21 20 20 19 19 18 17 17 17 17 17 16 15 15 14 14 14 14 13 13 12 12 11 11 11 10 10
18 17 18 18 18 19 19 20 21 20 21 21 21 21 21 22 23 22 21 21 20 20 19 19 18 18 18 19 18 17 17 16 15 15 14 14 14 14 13 13 12 12 12
20 20 20 20 21 21 21 22 22 22 22 22 23 23 23 24 24 23 24 23 22 22 22 21 20 20 19 20 20 19 18 17 17 17 16 16 16 15 15 15 15 15 14
22 22 22 23 23 22 23 23 24 24 23 23 24 24 25 25 26 25 24 24 24 24 24 24 23 22 22 21 21 21 21 20 19 19 18 18 18 17 17 17 17 17 17
25 25 24 24 25 25 25 25 25 25 26 25 26 26 26 26 27 28 27 26 27 26 25 25 25 24 24 23 23 23 22 22 21 21 20 20 19 19 19 19 18 19 19
26 26 26 26 26 27 27 27 26 27 28 28 28 28 27 27 27 28 29 29 29 29 27 26 27 26 25 25 25 25 25 24 23 22 22 22 21 21 20 20 20 20 20
27 27 27 27 28 28 28 28 28 29 29 31 31 31 30 29 29 28 29 29 30 30 30 28 28 28 27 27 27 26 26 26 26 25 24 24 23 22 22 22 22 22 22
27 28 28 28 29 28 28 28 28 29 29 31 32 32 32 31 30 30 30 29 29 30 30 29 29 29 28 28 28 28 28 28 27 26 26 25 25 25 24 24 24 24 24
27 27 28 28 28 28 28 28 28 28 30 31 32 32 33 32 33 32 32 31 31 30 29 29 28 29 29 28 29 29 29 29 28 27 26 27 27 27 27 27 27 26 27
26 27 28 28 28 27 27 28 29 29 30 31 32 32 32 33 33 33 33 32 32 32 31 30 29 29 29 28 29 30 30 29 29 28 28 29 28 28 28 28 29 29 29
27 27 28 28 29 28 27 28 28 29 30 30 31 32 32 33 33 32 32 32 32 31 31 30 29 30 31 30 30 30 30 29 29 29 29 30 29 29 29 29 30 30 30
27 27 27 27 27 27 27 28 28 29 30 30 31 32 32 33 33 33 33 32 32 31 31 31 30 30 31 31 31 31 30 30 30 30 29 30 30 30 30 30 31 32 32
26 27 27 28 28 28 28 29 29 29 30 31 31 32 33 33 33 33 33 34 33 32 31 32 32 31 30 31 31 31 31 30 30 30 30 30 30 30 30 31 31 31 32
25 26 27 28 28 29 30 30 30 30 30 30 31 31 31 32 32 33 32 32 32 30 29 30 30 30 31 30 30 30 30 31 31 32 32 32 31 31 31 31 32 31 32
Wind_Direction
176 176 178 179 181 185 188 194 198 202 202 199 193 186 177 163 146 120 98 82 70 62 57 48 42 42 37 37 34 33 33 33 32 30 28 32 38 39 36 30 26 22 16
188 186 184 187 192 195 199 204 209 213 214 210 205 197 190 183 175 153 119 92 73 62 56 48 40 40 39 36 31 29 29 32 34 34 35 37 38 38 35 26 23 19 16
203 203 200 195 196 202 211 219 224 224 224 220 218 212 207 206 204 199 180 130 77 63 53 45 37 35 36 34 27 21 21 28 33 38 40 42 41 38 32 25 24 25 25
220 217 212 205 201 205 214 223 228 230 231 228 226 222 222 225 225 225 220 233 257 8 31 30 23 19 16 18 9 6 9 22 28 39 40 43 44 40 32 29 27 30 32
230 227 220 213 210 212 217 223 227 234 237 234 231 230 231 233 235 235 237 245 254 260 261 274 301 320 317 327 328 328 334 348 13 32 30 37 41 36 30 26 24 32 39
239 237 229 224 219 218 221 226 231 237 240 239 236 236 236 236 238 239 243 247 251 252 252 255 264 277 281 284 284 285 281 272 269 282 303 345 17 20 14 11 6 20 32
246 241 237 234 228 226 228 230 234 238 240 241 241 241 241 241 240 239 244 246 250 252 251 253 254 257 266 266 265 264 256 253 250 249 258 263 284 291 288 293 316 340 22
249 246 239 237 235 234 236 237 239 239 240 241 242 243 244 243 242 241 244 246 249 251 251 251 249 250 255 256 257 256 249 245 244 245 247 250 258 263 268 264 263 268 312
249 249 245 242 243 242 242 242 242 242 242 242 243 244 245 245 245 245 245 245 247 248 249 250 247 248 252 253 253 251 248 243 242 243 245 245 253 258 258 257 257 259 269
250 251 252 250 248 247 248 247 245 245 246 246 245 245 245 246 245 246 247 246 247 248 249 248 246 247 248 250 250 249 247 244 244 243 246 247 250 255 256 259 256 259 265
258 258 259 255 252 251 252 251 249 249 250 249 249 249 248 248 246 247 249 248 248 250 249 248 247 246 245 246 248 248 247 246 245 245 247 248 249 253 256 258 258 258 262
262 262 262 261 258 256 257 256 255 253 252 252 250 250 251 250 249 249 250 250 249 250 250 250 249 248 247 246 247 247 246 247 247 246 246 249 251 254 258 259 261 260 260
272 270 268 266 263 262 260 258 258 256 254 255 253 252 252 251 251 251 250 250 250 249 249 252 252 251 250 249 247 246 245 247 248 249 247 249 251 253 257 259 263 263 264
273 271 269 267 266 264 262 261 259 257 256 255 253 253 254 253 252 251 250 251 251 251 251 252 252 252 253 251 250 248 245 246 248 249 249 250 251 253 256 258 262 265 266
272 272 271 270 267 264 262 261 261 258 256 256 256 255 255 255 254 254 254 253 252 252 252 251 252 253 253 252 251 250 246 246 248 248 249 250 250 252 255 257 262 265 267
272 273 274 273 268 264 262 261 262 263 260 257 256 255 255 255 253 254 256 256 255 254 252 251 250 252 251 252 251 250 248 247 248 250 251 251 251 252 253 257 262 264 267
272 273 272 272 270 266 264 262 262 262 261 258 257 256 256 257 256 256 256 256 256 255 252 250 248 250 251 250 250 251 251 249 248 249 250 251 254 254 254 257 261 264 267
273 274 273 272 271 268 266 264 263 260 259 259 258 259 258 258 259 256 257 257 257 253 252 251 249 249 250 249 249 251 251 251 252 249 249 250 253 255 256 257 261 263 266
272 273 272 271 271 270 267 266 265 261 261 260 259 259 258 259 259 256 257 257 258 256 254 252 250 250 251 250 250 252 252 251 253 250 249 249 252 254 255 259 261 263 267
271 270 270 270 270 269 267 266 265 261 260 260 260 259 258 258 258 257 257 257 259 258 255 254 254 251 251 250 251 252 253 252 252 251 250 250 251 253 255 258 263 265 267
268 268 269 269 268 267 266 263 263 263 262 262 261 261 257 257 258 259 258 257 259 257 254 254 254 251 251 250 251 252 251 250 252 251 250 251 251 254 256 259 263 264 267
266 267 269 269 268 267 265 265 263 263 263 262 262 261 259 258 259 259 258 257 259 257 254 254 252 249 248 252 253 250 248 247 249 250 251 251 252 254 256 259 262 265 268
266 266 266 267 267 266 266 266 263 263 262 263 261 260 260 259 259 258 257 258 259 260 255 253 250 249 249 249 250 250 247 248 250 250 251 251 252 254 256 259 261 265 269
265 266 267 266 265 265 266 266 262 263 262 262 261 259 259 258 258 257 257 257 258 257 252 250 250 251 248 248 249 249 246 248 249 251 252 254 254 255 258 260 263 266 269
266 266 267 267 265 265 266 265 263 263 263 262 262 261 259 257 257 256 257 256 256 254 250 248 247 247 246 247 247 247 246 248 251 252 254 256 255 256 258 261 265 268 270
269 269 269 269 268 266 265 265 264 264 264 262 262 262 261 258 257 257 257 256 252 249 248 247 246 246 243 244 245 246 247 248 250 252 252 255 257 258 260 263 266 268 271
Height
5905 5905 5906 5906 5907 5907 5908 5909 5910 5911 5912 5912 5912 5912 5912 5912 5912 5912 5912 5912 5912 5912 5912 5912 5912 5912 5912 5912 5912 5911 5911 5911 5910 5910 5909 5909 5908 5908 5908 5907 5907 5906 5906
5904 5904 5905 5906 5906 5907 5908 5908 5909 5910 5911 5911 5911 5911 5911 5911 5912 5912 5912 5912 5912 5912 5912 5911 5912 5912 5911 5912 5912 5911 5911 5911 5910 5910 5910 5909 5909 5908 5908 5907 5907 5907 5906
5903 5903 5904 5905 5905 5906 5907 5908 5908 5909 5910 5910 5910 5910 5910 5910 5911 5911 5911 5911 5911 5911 5911 5911 5911 5911 5911 5911 5911 5911 5911 5911 5910 5910 5910 5909 5909 5908 5908 5908 5907 5907 5907
5901 5901 5902 5903 5904 5904 5905 5906 5907 5908 5908 5909 5909 5909 5909 5910 5910 5910 5910 5911 5911 5911 5911 5911 5911 5911 5911 5910 5910 5910 5910 5910 5910 5910 5910 5909 5909 5908 5908 5908 5907 5907 5907
5899 5900 5900 5901 5902 5903 5904 5905 5906 5906 5907 5907 5908 5908 5908 5909 5909 5909 5910 5910 5910 5910 5910 5910 5910 5910 5910 5910 5910 5910 5910 5910 5910 5909 5909 5909 5909 5909 5908 5908 5908 5907 5907
5897 5897 5898 5899 5900 5901 5902 5903 5904 5905 5905 5906 5906 5906 5907 5907 5908 5908 5909 5909 5909 5909 5909 5909 5909 5909 5909 5909 5909 5909 5909 5909 5909 5909 5909 5909 5909 5908 5908 5908 5908 5908 5907
5895 5895 5896 5897 5898 5899 5900 5900 5901 5902 5903 5904 5904 5905 5905 5906 5906 5907 5907 5907 5908 5908 5908 5908 5908 5908 5908 5908 5908 5908 5908 5908 5908 5908 5908 5909 5909 5908 5908 5908 5908 5908 5907
5893 5893 5893 5894 5895 5896 5897 5898 5899 5900 5900 5901 5902 5902 5903 5903 5904 5905 5905 5906 5906 5906 5906 5906 5906 5906 5906 5906 5907 5907 5907 5907 5907 5907 5908 5908 5908 5908 5908 5908 5907 5907 5907
5890 5891 5891 5892 5892 5893 5894 5895 5896 5897 5897 5898 5899 5899 5900 5901 5902 5902 5903 5903 5904 5904 5904 5904 5904 5905 5905 5905 5905 5906 5906 5906 5906 5906 5907 5907 5907 5907 5907 5907 5907 5907 5906
5888 5888 5889 5889 5890 5890 5891 5892 5893 5894 5894 5895 5896 5896 5897 5898 5898 5899 5900 5900 5901 5901 5901 5902 5902 5902 5903 5903 5904 5904 5904 5904 5905 5905 5905 5906 5906 5906 5906 5906 5906 5905 5905
5885 5886 5886 5886 5887 5887 5888 5889 5889 5890 5891 5891 5892 5892 5893 5894 5895 5896 5897 5897 5898 5899 5899 5899 5900 5900 5900 5900 5901 5901 5902 5902 5903 5903 5903 5904 5904 5904 5904 5904 5904 5904 5904
5882 5883 5883 5883 5884 5884 5885 5885 5886 5886 5887 5888 5888 5889 5889 5890 5891 5892 5893 5894 5895 5895 5896 5896 5896 5897 5897 5897 5898 5899 5899 5900 5900 5900 5901 5901 5902 5902 5902 5902 5902 5902 5902
5879 5879 5880 5880 5880 5881 5881 5881 5882 5882 5883 5883 5884 5884 5885 5886 5886 5887 5888 5889 5890 5891 5892 5893 5893 5893 5894 5895 5895 5896 5896 5897 5897 5898 5898 5899 5899 5899 5900 5900 5900 5900 5900
5875 5875 5876 5876 5876 5877 5877 5877 5878 5878 5878 5879 5879 5880 5880 5881 5881 5883 5884 5885 5886 5887 5888 5889 5889 5890 5890 5891 5892 5892 5893 5893 5894 5895 5895 5896 5896 5897 5897 5897 5897 5897 5897
5870 5871 5871 5872 5872 5872 5872 5872 5873 5873 5873 5873 5874 5875 5876 5876 5877 5878 5879 5880 5881 5882 5883 5884 5885 5886 5887 5887 5888 5889 5889 5890 5890 5891 5892 5892 5893 5894 5894 5894 5894 5894 5894
5866 5866 5866 5866 5866 5866 5867 5867 5867 5868 5868 5868 5868 5869 5870 5871 5872 5873 5874 5875 5876 5877 5878 5879 5880 5881 5882 5883 5884 5885 5885 5886 5886 5887 5888 5889 5889 5890 5890 5890 5890 5890 5890
5860 5861 5861 5861 5861 5861 5861 5861 5861 5862 5862 5863 5863 5863 5864 5865 5867 5868 5869 5870 5871 5872 5873 5874 5875 5876 5877 5878 5879 5880 5881 5881 5882 5883 5884 5884 5885 5885 5886 5886 5886 5887 5887
5855 5855 5855 5855 5855 5855 5855 5856 5856 5855 5855 5857 5857 5858 5859 5860 5861 5861 5863 5864 5864 5865 5867 5868 5869 5870 5872 5873 5873 5874 5876 5877 5878 5878 5879 5880 5880 5881 5881 5882 5882 5882 5882
5849 5849 5849 5849 5849 5849 5849 5849 5850 5849 5849 5850 5851 5852 5853 5854 5854 5855 5856 5857 5858 5859 5861 5862 5863 5864 5865 5867 5868 5869 5870 5871 5873 5873 5874 5875 5876 5877 5877 5877 5878 5878 5878
5843 5843 5843 5843 5842 5842 5842 5843 5843 5843 5843 5843 5844 5845 5846 5847 5848 5848 5849 5850 5851 5853 5854 5855 5856 5857 5859 5860 5861 5863 5864 5865 5867 5868 5869 5870 5871 5872 5872 5872 5873 5873 5873
5836 5836 5836 5836 5836 5836 5836 5836 5836 5836 5836 5836 5837 5837 5838 5839 5841 5842 5843 5844 5845 5846 5847 5848 5849 5850 5852 5854 5855 5857 5858 5859 5861 5862 5863 5864 5865 5866 5867 5867 5867 5867 5867
5830 5830 5829 5829 5829 5829 5829 5829 5829 5829 5829 5829 5830 5830 5831 5832 5833 5834 5835 5837 5838 5839 5840 5842 5843 5844 5846 5847 5849 5850 5852 5854 5855 5856 5857 5859 5860 5860 5861 5861 5861 5861 5861
5823 5823 5823 5822 5822 5822 5822 5822 5822 5822 5822 5822 5822 5822 5823 5824 5825 5826 5827 5829 5830 5831 5832 5834 5836 5837 5839 5841 5842 5844 5846 5847 5849 5850 5851 5852 5853 5854 5855 5855 5855 5855 5855
5816 5815 5815 5815 5814 5814 5814 5814 5814 5814 5814 5814 5814 5814 5815 5816 5817 5818 5820 5821 5823 5824 5825 5827 5829 5830 5832 5834 5836 5838 5840 5841 5842 5843 5845 5846 5847 5848 5849 5849 5848 5848 5848
5809 5808 5808 5807 5807 5807 5807 5807 5807 5807 5807 5807 5807 5807 5807 5808 5809 5810 5812 5813 5814 5816 5818 5820 5821 5823 5825 5827 5829 5830 5832 5834 5836 5837 5839 5840 5840 5841 5842 5842 5842 5841 5840
5802 5801 5800 5800 5800 5800 5800 5800 5800 5799 5799 5799 5799 5800 5800 5801 5802 5803 5804 5805 5807 5808 5810 5812 5814 5815 5817 5820 5822 5824 5825 5827 5829 5831 5832 5833 5833 5834 5834 5834 5834 5834 5833